This demonstration page uses our WeatherBlox Daily Observations layout. Learn more.

Hourly Observations for December 8, 2017

Temp ( °F °C ) Dew Point ( °F °C ) Humidity (%) Winds ( mph kmh ) Pressure ( in mb ) Visibility ( mi km ) Precip ( " mm )
12:54 am 00:54 Clear 19 -7.2 10 -12.2 68 68 SSW 6 9 30.11 1020 10 16.0934 0 0
1:54 am 01:54 Clear 20 -6.7 12 -11.1 71 71 S 5 7 30.09 1019 10 16.0934 0 0
2:54 am 02:54 Mostly Clear 24 -4.4 13 -10.6 62 62 Calm 30.08 1019 10 16.0934 0 0
3:54 am 03:54 Clear 24 -4.4 15 -9.4 68 68 SSW 6 9 30.05 1018 10 16.0934 0 0
4:54 am 04:54 Clear 25 -3.9 15 -9.4 66 66 SW 5 7 30.04 1017 10 16.0934 0 0
5:54 am 05:54 Mostly Clear 25 -3.9 16 -8.9 69 69 Calm 30.04 1017 10 16.0934 0 0
6:54 am 06:54 Mostly Clear 23 -5 15 -9.4 72 72 Calm 30.06 1018 10 16.0934 0 0
7:54 am 07:54 Cloudy 26 -3.3 19 -7.2 75 75 NNW 3 6 30.07 1018 10 16.0934 0 0
8:54 am 08:54 Cloudy 29 -1.7 21 -6.1 72 72 N 6 9 30.09 1019 10 16.0934 0 0
9:54 am 09:54 Cloudy 34 1.1 25 -3.9 70 70 N 14 22 30.09 1019 10 16.0934 0 0
10:54 am 10:54 Cloudy 35 1.7 25 -3.9 67 67 NNW 15 24 30.11 1020 10 16.0934 0 0
11:54 am 11:54 Cloudy 35 1.7 25 -3.9 67 67 N 15 24 30.09 1019 9 14.48406 0 0
12:54 pm 12:54 Cloudy 34 1.1 24 -4.4 67 67 N 18 30 30.09 1019 9 14.48406 0 0
1:54 pm 13:54 Cloudy 34 1.1 25 -3.9 70 70 NNW 15 24 30.08 1019 9 14.48406 0 0
2:54 pm 14:54 Cloudy 34 1.1 24 -4.4 67 67 NNW 12 19 30.07 1018 10 16.0934 0 0
3:54 pm 15:54 Mostly Cloudy 36 2.2 24 -4.4 62 62 NNW 10 17 30.07 1018 10 16.0934 0 0
4:09 pm 16:09 Mostly Sunny 35 1.7 24 -4.4 64 64 NNW 10 17 30.09 1019 10 16.0934 0 0
4:54 pm 16:54 Sunny 33 0.6 23 -5 66 66 NW 3 6 30.07 1018 10 16.0934 0 0
5:54 pm 17:54 Clear 30 -1.1 22 -5.6 72 72 Calm 30.06 1018 10 16.0934 0 0
6:54 pm 18:54 Clear 30 -1.1 22 -5.6 72 72 Calm 30.04 1017 10 16.0934 0 0
7:54 pm 19:54 Clear 30 -1.1 22 -5.6 72 72 WSW 3 6 30.04 1017 10 16.0934 0 0
8:54 pm 20:54 Clear 29 -1.7 22 -5.6 75 75 Calm 30.02 1017 10 16.0934 0 0
9:54 pm 21:54 Clear 32 0 23 -5 69 69 WNW 7 11 30.01 1016 10 16.0934 0 0
10:54 pm 22:54 Clear 35 1.7 24 -4.4 64 64 NW 13 20 30.01 1016 10 16.0934 0 0
11:54 pm 23:54 Clear 33 0.6 24 -4.4 70 70 NW 9 15 30.03 1017 10 16.0934 0 0

Powered by AerisWeather